Location: Emblem
(62.4273°N, 6.4710°E)
Time: 06:44:53
(UTC+02:00)

Transit 2A - Pass Details

Date: 12 March 2024
Orbit: 596 x 956 km, 66.7° (Epoch: 24 April)

Event Time Altitude Azimuth Distance (km) Brightness Sun altitude
Rises 23:30:42 0° 304° (NW) 2,962 9.8 -28.9°
Reaches altitude 10° 23:32:55 10° 302° (WNW) 2,089 8.9 -29.0°
Enters shadow 23:36:01 41° 288° (WNW) 1,000 6.8 -29.1°
